sat.trackr.live / text

‹ back to catalog

GONETS-M 10

NORAD 40063 · 2014-036C

PAYLOAD ACTIVE UNKNOWN

§ Identity

Operator
Country
CIS
Launch date
2014-07-03
Launch site
PLMSC
Launch vehicle
Mass (kg)
RCS (m²)
1.72

External: N2YO · Heavens-Above · Gunter

§ Orbital elements

Epoch: 2026-05-25T05:02:50.495424Z

Period
115.85 min
Inclination
82.5105°
Eccentricity
0.0021679
Mean motion
12.42944921 rev/d
Perigee alt
1,477.1 km
Apogee alt
1,511.2 km
Semi-major
7,872.3 km
B*
2.8420e-4
RAAN
321.9501°
Arg perigee
189.8387°
Mean anomaly
170.2271°
Rev number
53,939

§ Raw data

GONETS-M 101 40063U 14036C   26145.21030666  .00000049  00000+0  28420-3 0  99902 40063  82.5105 321.9501 0021679 189.8387 170.2271 12.42944921539393

JSON: /api/v1/satellites/40063 · /tle

For live sub-satellite position, see the globe view (requires WebGL).

§ Visibility from observer

Set your observer location to see the next 7 days of passes ≥ 10°. The values pass through the URL so the page stays shareable.

No JS? Fill the form by hand. The geolocation button needs JavaScript.

§ Radio — SatNOGS DB

ModeDescriptionDownlinkUplink
FM UHF Unknown 388.687 MHz
FM UHF Unknown 388.787 MHz

2 transmitters · refreshed weekly from db.satnogs.org